Back to catalog

DELTA 1 DEB

AliveSSO
NORAD 18469·DEBRIS·🇺🇸 United States

Launched Mar 5, 1978 from Vandenberg Space Force Base

Loading…

Next Passes (next 24 hours)

TLE

FreshSource: Space-Track

Epoch: Sep 13, 2026, 03:13 UTC

1 18469U 78026HF  26256.13409935  .00000247  00000-0  20360-3 0  9993
2 18469  98.9041 202.8469 0045353 316.7675  55.3949 13.97804196117874

Track DELTA 1 DEB in real time with AllMySat

Download on the App Store